GLO9580 SBGR-SBGL

Flight info

Callsign GLO9580
Flight time 0h 35m
Altitude 27000
Route UREMI UZ42 VUREP
Aircraft B738/M-SDFGIKLORWX/LB1

Departure

Time 2026-05-01 13:52
Airport São Paulo/Guarulhos–Governor André Franco Montoro International Airport (SBGR)

Arrival

Time 2026-05-01 14:27
Airport Rio Galeão – Tom Jobim International Airport (SBGL)
Time Latitude Longitude Altitude Speed Heading
2026-05-01 13:25 -23.42819 -46.48352 2460 ft 0 kts 84°
2026-05-01 13:45 -23.42819 -46.48353 2466 ft 2 kts 84°
2026-05-01 13:45 -23.42819 -46.48380 2460 ft 4 kts 106°
2026-05-01 13:46 -23.42807 -46.48406 2468 ft 4 kts 135°
2026-05-01 13:46 -23.42786 -46.48422 2466 ft 4 kts 160°
2026-05-01 13:46 -23.42765 -46.48427 2467 ft 1 kts 180°
2026-05-01 13:48 -23.42778 -46.48428 2462 ft 4 kts 186°
2026-05-01 13:49 -23.42827 -46.48435 2465 ft 9 kts 188°
2026-05-01 13:49 -23.42888 -46.48444 2460 ft 9 kts 187°
2026-05-01 13:49 -23.42947 -46.48450 2462 ft 8 kts 181°
2026-05-01 13:49 -23.43005 -46.48451 2460 ft 8 kts 180°
2026-05-01 13:50 -23.43060 -46.48445 2463 ft 8 kts 165°
2026-05-01 13:50 -23.43117 -46.48426 2462 ft 10 kts 162°
2026-05-01 13:50 -23.43193 -46.48401 2462 ft 12 kts 163°
2026-05-01 13:50 -23.43275 -46.48374 2465 ft 12 kts 163°
2026-05-01 13:51 -23.43357 -46.48348 2464 ft 12 kts 161°
2026-05-01 13:51 -23.43413 -46.48281 2464 ft 14 kts 84°
2026-05-01 13:51 -23.43372 -46.48126 2461 ft 44 kts 73°
2026-05-01 13:51 -23.43223 -46.47576 2461 ft 108 kts 74°
2026-05-01 13:52 -23.42956 -46.46587 2465 ft 161 kts 73°
2026-05-01 13:52 -23.42594 -46.45273 2708 ft 192 kts 73°
2026-05-01 13:52 -23.42212 -46.43892 3549 ft 188 kts 72°
2026-05-01 13:52 -23.41837 -46.42519 4208 ft 196 kts 72°
2026-05-01 13:53 -23.41393 -46.41016 4445 ft 219 kts 71°
2026-05-01 13:53 -23.40347 -46.37514 5051 ft 264 kts 72°
2026-05-01 13:53 -23.40231 -46.35529 5720 ft 272 kts 98°
2026-05-01 13:54 -23.40754 -46.33515 6390 ft 280 kts 108°
2026-05-01 13:54 -23.41437 -46.31515 7091 ft 284 kts 109°
2026-05-01 13:54 -23.42135 -46.29490 7789 ft 287 kts 109°
2026-05-01 13:54 -23.42827 -46.27430 8422 ft 292 kts 109°
2026-05-01 13:55 -23.43513 -46.25352 9199 ft 293 kts 109°
2026-05-01 13:55 -23.44125 -46.23243 9947 ft 293 kts 103°
2026-05-01 13:55 -23.44539 -46.21033 10525 ft 299 kts 99°
2026-05-01 13:55 -23.44895 -46.18794 11033 ft 308 kts 99°
2026-05-01 13:56 -23.45258 -46.16493 11712 ft 310 kts 100°
2026-05-01 13:56 -23.45632 -46.14185 12408 ft 311 kts 100°
2026-05-01 13:56 -23.46019 -46.11860 13031 ft 309 kts 100°
2026-05-01 13:56 -23.46409 -46.09556 13597 ft 312 kts 101°
2026-05-01 13:57 -23.46811 -46.07209 14185 ft 317 kts 101°
2026-05-01 13:57 -23.47221 -46.04826 14774 ft 322 kts 101°
2026-05-01 13:57 -23.47638 -46.02414 15338 ft 327 kts 101°
2026-05-01 13:57 -23.48055 -45.99997 15949 ft 330 kts 101°
2026-05-01 13:58 -23.48487 -45.97497 16577 ft 334 kts 101°
2026-05-01 13:58 -23.48913 -45.95025 17163 ft 338 kts 101°
2026-05-01 13:58 -23.49057 -45.92459 17742 ft 342 kts 79°
2026-05-01 13:58 -23.48500 -45.89932 18368 ft 344 kts 74°
2026-05-01 13:59 -23.47858 -45.87395 18899 ft 349 kts 73°
2026-05-01 13:59 -23.47206 -45.84844 19422 ft 352 kts 73°
2026-05-01 13:59 -23.46550 -45.82260 19969 ft 355 kts 73°
2026-05-01 13:59 -23.45898 -45.79658 20508 ft 358 kts 73°
2026-05-01 14:00 -23.45244 -45.77024 21034 ft 361 kts 73°
2026-05-01 14:00 -23.44586 -45.74364 21555 ft 365 kts 73°
2026-05-01 14:00 -23.43926 -45.71685 22070 ft 368 kts 73°
2026-05-01 14:00 -23.43260 -45.68981 22596 ft 371 kts 73°
2026-05-01 14:01 -23.42598 -45.66290 23091 ft 375 kts 73°
2026-05-01 14:01 -23.41920 -45.63540 23598 ft 377 kts 73°
2026-05-01 14:01 -23.41238 -45.60772 24065 ft 380 kts 73°
2026-05-01 14:01 -23.40549 -45.57978 24476 ft 383 kts 73°
2026-05-01 14:02 -23.39854 -45.55161 24872 ft 386 kts 73°
2026-05-01 14:02 -23.39152 -45.52325 25267 ft 390 kts 73°
2026-05-01 14:02 -23.38466 -45.49460 25679 ft 393 kts 75°
2026-05-01 14:02 -23.37842 -45.46555 26097 ft 396 kts 76°
2026-05-01 14:03 -23.37242 -45.43649 26502 ft 398 kts 76°
2026-05-01 14:03 -23.36633 -45.40703 26897 ft 402 kts 76°
2026-05-01 14:03 -23.36006 -45.37720 27187 ft 406 kts 76°
2026-05-01 14:03 -23.35359 -45.34679 27199 ft 417 kts 76°
2026-05-01 14:04 -23.34692 -45.31565 27213 ft 428 kts 76°
2026-05-01 14:04 -23.34009 -45.28388 27217 ft 434 kts 76°
2026-05-01 14:04 -23.33318 -45.25177 27210 ft 435 kts 76°
2026-05-01 14:04 -23.32863 -45.23066 27203 ft 434 kts 76°
2026-05-01 14:05 -23.31942 -45.18792 27199 ft 433 kts 76°
2026-05-01 14:05 -23.31256 -45.15609 27193 ft 432 kts 76°
2026-05-01 14:05 -23.30579 -45.12473 27204 ft 430 kts 76°
2026-05-01 14:05 -23.29893 -45.09299 27200 ft 430 kts 76°
2026-05-01 14:06 -23.29209 -45.06137 27203 ft 429 kts 76°
2026-05-01 14:06 -23.28525 -45.02978 27210 ft 429 kts 76°
2026-05-01 14:06 -23.27839 -44.99814 27192 ft 429 kts 76°
2026-05-01 14:06 -23.27156 -44.96662 27220 ft 428 kts 76°
2026-05-01 14:07 -23.26467 -44.93490 27138 ft 431 kts 76°
2026-05-01 14:07 -23.25770 -44.90294 26803 ft 448 kts 76°
2026-05-01 14:07 -23.25044 -44.86964 26362 ft 452 kts 76°
2026-05-01 14:08 -23.23605 -44.80351 25461 ft 445 kts 76°
2026-05-01 14:08 -23.22890 -44.77074 24975 ft 443 kts 76°
2026-05-01 14:08 -23.22188 -44.73864 24523 ft 441 kts 75°
2026-05-01 14:08 -23.21481 -44.70629 24055 ft 439 kts 75°
2026-05-01 14:09 -23.20775 -44.67403 23543 ft 437 kts 75°
2026-05-01 14:09 -23.20073 -44.64204 23041 ft 433 kts 76°
2026-05-01 14:09 -23.19383 -44.61034 22560 ft 430 kts 76°
2026-05-01 14:09 -23.18722 -44.57874 22102 ft 426 kts 76°
2026-05-01 14:10 -23.17976 -44.54786 21642 ft 421 kts 69°
2026-05-01 14:10 -23.16818 -44.51883 21204 ft 416 kts 63°
2026-05-01 14:10 -23.15556 -44.49066 20759 ft 413 kts 62°
2026-05-01 14:10 -23.14287 -44.46272 20315 ft 410 kts 62°
2026-05-01 14:11 -23.13032 -44.43504 19869 ft 407 kts 63°
2026-05-01 14:11 -23.10578 -44.38024 18975 ft 403 kts 63°
2026-05-01 14:11 -23.09363 -44.35288 18533 ft 401 kts 63°
2026-05-01 14:12 -23.08153 -44.32557 18041 ft 399 kts 63°
2026-05-01 14:12 -23.06956 -44.29852 17587 ft 396 kts 63°
2026-05-01 14:12 -23.05778 -44.27191 17149 ft 392 kts 63°
2026-05-01 14:12 -23.04600 -44.24531 16723 ft 389 kts 63°
2026-05-01 14:13 -23.03426 -44.21882 16296 ft 387 kts 64°
2026-05-01 14:13 -23.02652 -44.20137 15994 ft 386 kts 64°
2026-05-01 14:13 -23.01114 -44.16672 15433 ft 382 kts 64°
2026-05-01 14:13 -22.99963 -44.14081 15021 ft 379 kts 63°
2026-05-01 14:14 -22.98817 -44.11501 14592 ft 377 kts 64°
2026-05-01 14:14 -22.97683 -44.08949 14159 ft 374 kts 64°
2026-05-01 14:14 -22.96553 -44.06408 13698 ft 372 kts 64°
2026-05-01 14:14 -22.95435 -44.03892 13260 ft 369 kts 63°
2026-05-01 14:15 -22.94333 -44.01417 12844 ft 365 kts 64°
2026-05-01 14:15 -22.93231 -43.98945 12411 ft 361 kts 64°
2026-05-01 14:15 -22.92140 -43.96497 11994 ft 358 kts 64°
2026-05-01 14:15 -22.91083 -43.94125 11580 ft 348 kts 64°
2026-05-01 14:16 -22.90042 -43.91789 11175 ft 339 kts 63°
2026-05-01 14:16 -22.89029 -43.89519 10834 ft 329 kts 63°
2026-05-01 14:16 -22.88056 -43.87331 10712 ft 314 kts 63°
2026-05-01 14:16 -22.87120 -43.85234 10578 ft 307 kts 63°
2026-05-01 14:17 -22.86200 -43.83176 10438 ft 299 kts 63°
2026-05-01 14:17 -22.85305 -43.81174 10308 ft 291 kts 63°
2026-05-01 14:17 -22.84443 -43.79244 10192 ft 283 kts 63°
2026-05-01 14:17 -22.83588 -43.77331 9898 ft 281 kts 63°
2026-05-01 14:18 -22.82738 -43.75429 9613 ft 279 kts 63°
2026-05-01 14:18 -22.81894 -43.73545 9402 ft 275 kts 63°
2026-05-01 14:18 -22.81071 -43.71675 9116 ft 273 kts 67°
2026-05-01 14:18 -22.80674 -43.70380 8903 ft 274 kts 75°
2026-05-01 14:19 -22.80099 -43.67721 8499 ft 273 kts 76°
2026-05-01 14:19 -22.79670 -43.65739 8192 ft 273 kts 76°
2026-05-01 14:19 -22.79378 -43.64435 7965 ft 271 kts 75°
2026-05-01 14:19 -22.78836 -43.62056 7579 ft 266 kts 75°
2026-05-01 14:20 -22.78389 -43.60125 7259 ft 261 kts 75°
2026-05-01 14:20 -22.77510 -43.56356 6512 ft 256 kts 75°
2026-05-01 14:20 -22.76944 -43.54540 6107 ft 253 kts 66°
2026-05-01 14:21 -22.76236 -43.52811 5787 ft 247 kts 65°
2026-05-01 14:21 -22.75566 -43.51180 5590 ft 236 kts 66°
2026-05-01 14:21 -22.74899 -43.49532 5130 ft 235 kts 66°
2026-05-01 14:22 -22.73639 -43.46384 4380 ft 216 kts 66°
2026-05-01 14:22 -22.73059 -43.44922 4082 ft 208 kts 66°
2026-05-01 14:22 -22.72503 -43.43521 3787 ft 200 kts 66°
2026-05-01 14:22 -22.71970 -43.42167 3540 ft 189 kts 70°
2026-05-01 14:23 -22.71882 -43.40813 3263 ft 179 kts 108°
2026-05-01 14:23 -22.72442 -43.39636 3044 ft 175 kts 123°
2026-05-01 14:23 -22.73136 -43.38577 2809 ft 174 kts 124°
2026-05-01 14:23 -22.73845 -43.37512 2550 ft 174 kts 124°
2026-05-01 14:24 -22.74554 -43.36452 2314 ft 173 kts 125°
2026-05-01 14:24 -22.75256 -43.35401 2090 ft 169 kts 125°
2026-05-01 14:24 -22.75925 -43.34394 1844 ft 161 kts 126°
2026-05-01 14:24 -22.76593 -43.33389 1698 ft 169 kts 126°
2026-05-01 14:25 -22.77275 -43.32362 1430 ft 163 kts 126°
2026-05-01 14:25 -22.77912 -43.31402 1204 ft 156 kts 126°
2026-05-01 14:25 -22.78534 -43.30463 986 ft 152 kts 126°
2026-05-01 14:25 -22.79155 -43.29528 807 ft 154 kts 126°
2026-05-01 14:26 -22.79787 -43.28574 615 ft 157 kts 125°
2026-05-01 14:26 -22.81072 -43.26645 135 ft 159 kts 124°
2026-05-01 14:26 -22.81695 -43.25690 26 ft 146 kts 126°
2026-05-01 14:27 -22.82199 -43.24923 28 ft 103 kts 126°
2026-05-01 14:27 -22.82509 -43.24457 27 ft 50 kts 126°
2026-05-01 14:27 -22.82623 -43.24230 29 ft 16 kts 65°
2026-05-01 14:28 -22.82521 -43.24176 29 ft 8 kts 337°
2026-05-01 14:28 -22.82486 -43.24217 25 ft 7 kts 307°
2026-05-01 14:28 -22.82457 -43.24261 26 ft 7 kts 305°
2026-05-01 14:28 -22.82429 -43.24305 28 ft 7 kts 305°
2026-05-01 14:29 -22.82387 -43.24368 28 ft 13 kts 306°
2026-05-01 14:29 -22.82335 -43.24447 25 ft 13 kts 306°
2026-05-01 14:30 -22.82131 -43.24754 27 ft 18 kts 306°
2026-05-01 14:30 -22.82073 -43.24844 27 ft 14 kts 306°
2026-05-01 14:30 -22.82009 -43.24938 27 ft 18 kts 306°
2026-05-01 14:31 -22.81862 -43.25162 25 ft 18 kts 305°
2026-05-01 14:31 -22.81776 -43.25247 29 ft 17 kts 360°
2026-05-01 14:31 -22.81705 -43.25210 27 ft 17 kts 35°
2026-05-01 14:31 -22.81584 -43.25116 27 ft 16 kts 35°
2026-05-01 14:32 -22.81501 -43.25050 29 ft 13 kts 46°
2026-05-01 14:32 -22.81488 -43.24992 25 ft 12 kts 97°
2026-05-01 14:32 -22.81479 -43.24903 28 ft 12 kts 72°
2026-05-01 14:32 -22.81456 -43.24825 29 ft 8 kts 72°
2026-05-01 14:33 -22.81454 -43.24818 28 ft 0 kts 72°